Weather Roundup
Issued by NWS Chicago, IL

Home | Current Version | Previous Version | Graphics & Text | Print | Product List | Glossary On
Versions: 1 2 3 4 5 6 7 8 9 10 11 12 13 14 15 16 17 18 19 20 21 22 23 24 25 26 27 28 29 30 31 32 33 34 35 36 37 38 39 40 41 42 43 44 45 46 47 48 49 50
000
NZUS59 KLOT 291403
HRRLOT

CHICAGO AREA WEATHER ROUNDUP
NATIONAL WEATHER SERVICE CHICAGO/ROMEOVILLE IL
900 AM CDT FRI APR 29 2016

NOTE: "FAIR" INDICATES FEW OR NO CLOUDS BELOW 12,000 FEET WITH NO
SIGNIFICANT WEATHER AND/OR OBSTRUCTIONS TO VISIBILITY.

* THESE STATIONS ARE NOT UNDER NWS QUALITY CONTROL. THEY ALSO MAY NOT
  REPORT WEATHER SUCH AS PRECIPITATION OR FOG.

ILZ005-006-012>014-019>023-291500-
NORTHEAST ILLINOIS

CITY           SKY/WX    TMP DP  RH WIND       PRES   REMARKS
OHARE          CLOUDY    43  39  86 N12       30.06F
MIDWAY         CLOUDY    45  39  79 N13       30.05F
AURORA         CLOUDY    45  41  86 N12       30.06F FOG
LANSING*       CLOUDY    43  41  91 NE13      30.05F FOG
WAUKEGAN       CLOUDY    42  39  89 N8        30.07F
DUPAGE AIRPORT CLOUDY    43  39  86 N15       30.05F
WHEELING       CLOUDY    43  39  86 N10       30.08F
$$

WIZ051-052-058>065-066-070>072-291500-
SOUTHEAST WISCONSIN

CITY           SKY/WX    TMP DP  RH WIND       PRES   REMARKS
MILWAUKEE      CLOUDY    41  37  86 NE8       30.10S
KENOSHA*       CLOUDY    42  38  85 N8        30.08F
RACINE*        CLOUDY    43  38  82 N13       30.10F
BURLINGTON     CLOUDY    41  38  89 N8        30.08F
WAUKESHA       CLOUDY    39  37  93 N6        30.10F
$$

INZ001>003-010>013-019-020-291500-
NORTHWEST INDIANA

CITY           SKY/WX    TMP DP  RH WIND       PRES   REMARKS
GARY*          CLOUDY    45  45 100 N14       30.07F FOG
MICHIGAN CITY* NOT AVBL
RENSSELAER*    NOT AVBL
VALPARAISO     CLOUDY    44  42  93 N7        30.04F
$$

LMZ740>746-291500-
SOUTHERN LAKE MICHIGAN

STATION/POSITION TIME  SKY/WX   TEMP WIND        PRES    VSBY
                                AIR  DIR/SP/G
                 (UTC)          (F)  (DEG/KT/KT) (MB)    (MI)
HARRISON CRIB    1300            42  360/ 16/ 17   N/A
BURNHAM HARBOR   1400            42   10/ 13/ 15   N/A
CALUMET HARBOR   1300            42  340/ 12/ 14 1017.9S
BURNS HARBOR     1300            42  330/ 14/ 19 1018.6S
MICHIGAN CITY    1300            41  270/ 13/ 14   N/A
$$

ABBREVIATIONS USED IN REMARKS
   TC - TEMPERATURE IN CELSIUS
  WCI - WIND CHILL INDEX
   HX - HEAT INDEX
  VSB - VISIBILITY
$$




USA.gov is the U.S. government's official web portal to all federal, state and local government web resources and services.